SJ 16-02 DEB, 43429

Orbit data source: Space-Track

SJ 16-02 DEB, 43429 is space debris in LEO originally from a launch on Wed, 29 Jun 2016 UTC launched from the Jiuquan Satellite Launch Center, China (JSC). Debris objects in space refer to the collection of defunct objects orbiting the Earth. Examples of debris include non-operational satellites, rocket bodies, and fragments generated from explosions, collisions, or faulty payload assembly.

Loading next visibility...
Identifier
43429, 2016-043D
Orbit
LEO
Country
Flag of CNCN / PRC
Related business
Manufacturer
SAST
Mission
Spacecraft
Bus & Motor
Unknown
Mass
Unknown
Launch date (UTC)
2016-06-29 (10 years ago)
Launch vehicle
Unknown
Launch site
Jiuquan Satellite Launch Center, China (JSC)
Object type
Payload
Rocket body
Debris
Shape & HBR
Unknown shape, 0.1 m
Radar Cross Section
Small (<0.1 m²)

Expand to show TLE details & history
Last TLE update: 3 days ago

TLE from 3 days ago
0 SJ 16-02 DEB
1 43429U 16043D   26170.33260593  .00001591  00000-0  31399-3 0  9997
2 43429  74.9638  44.4589 0193667 314.7725  43.7822 14.51918321521713
Epoch: 2026-06-19T07:58Z
TLE epoch observation values (Epoch: 2026-06-19T07:58:57.152Z)
Latitude
-0.00001°
Longitude
17.15767°
Altitude
624.119 km
Speed
7.599 km/s
True Right ascension
02h 57m 50s
True Declination
0° 00' 00"
Sunlit
Object was in daylight at epoch
Visualization orbit readout
Latitude
Unknown
Longitude
Unknown
Altitude
Unknown
Speed
Unknown
Apparent Right ascension
Unknown
Apparent Declination
Unknown
Sunlit
N/A
Visualization observer readout
Local Sidereal Time
23:09:18
Azimuth
Unknown
Elevation
Unknown
Doppler factor
Unknown
Orbital elements
Apogee altitude
854.325 km
Perigee altitude
579.51 km
Semi-major axis
7,095.054 km
Eccentricity
0.01937
Inclination
74.9638°
RAAN
44.4589°
Arg. of periapsis
314.7725°
True anomaly
45.34485°
Mean anomaly
43.7822°
Eccentric anomaly
44.56079°
Mean motion
3.6317 °/min
Orbital period
99.13 mins
BSTAR
0.00031399
Loading maneuver chart data...
Computing Atmospheric mass density...
Loading historical data...
Loading historical data...
Loading historical data...
Loading historical data...
Loading historical data...
Loading historical data...
Loading historical data...
Other satellites on launch #43 in the year 2016 (2016-06-29 UTC)

Documentation

Showing up to 5 results
|